Time,TemperatureF,DewpointF,PressureIn,WindDirection,WindDirectionDegrees,WindSpeedMPH,WindSpeedGustMPH,Humidity,HourlyPrecipIn,Conditions,Clouds,dailyrainin,SoftwareType,DateUTC
2014-12-18 00:01:00,67.9,66.9,30.11,WSW,247,1.6,3.4,72,0.00,,,0.00,,2014-12-18 05:01:00,
2014-12-18 00:06:00,67.9,66.9,30.12,West,270,0.0,0.7,72,0.00,,,0.00,,2014-12-18 05:06:00,
2014-12-18 00:11:00,67.8,66.9,30.11,West,270,0.0,0.0,72,0.00,,,0.00,,2014-12-18 05:11:00,
2014-12-18 00:16:00,67.8,66.8,30.11,WSW,247,0.0,0.0,73,0.00,,,0.00,,2014-12-18 05:16:00,
2014-12-18 00:21:00,67.7,66.8,30.12,West,270,0.0,0.0,72,0.00,,,0.00,,2014-12-18 05:21:00,
2014-12-18 00:26:00,67.8,66.8,30.11,WNW,292,0.0,0.0,72,0.00,,,0.00,,2014-12-18 05:26:00,
2014-12-18 00:31:00,67.6,66.9,30.12,West,270,0.0,0.0,72,0.00,,,0.00,,2014-12-18 05:31:00,
2014-12-18 00:36:00,67.5,66.9,30.11,West,270,0.0,0.0,73,0.00,,,0.00,,2014-12-18 05:36:00,
2014-12-18 00:41:00,67.3,66.9,30.11,West,270,0.0,0.0,73,0.00,,,0.00,,2014-12-18 05:41:00,
2014-12-18 00:46:00,67.2,66.9,30.11,SW,225,0.2,3.4,73,0.00,,,0.00,,2014-12-18 05:46:00,
2014-12-18 00:51:00,67.2,66.9,30.11,SW,225,0.4,1.1,73,0.00,,,0.00,,2014-12-18 05:51:00,
2014-12-18 00:56:00,67.0,67.0,30.11,WSW,247,0.0,0.0,73,0.00,,,0.00,,2014-12-18 05:56:00,
2014-12-18 01:01:00,67.1,66.8,30.11,West,270,0.0,0.0,73,0.00,,,0.00,,2014-12-18 06:01:00,
2014-12-18 01:06:00,67.0,66.8,30.11,West,270,0.0,0.0,73,0.00,,,0.00,,2014-12-18 06:06:00,
2014-12-18 01:11:00,67.0,66.9,30.11,West,270,0.0,0.0,73,0.00,,,0.00,,2014-12-18 06:11:00,
2014-12-18 01:16:00,67.0,66.9,30.11,West,270,0.0,0.0,73,0.00,,,0.00,,2014-12-18 06:16:00,
2014-12-18 01:21:00,67.0,66.9,30.11,West,270,0.0,0.0,73,0.00,,,0.00,,2014-12-18 06:21:00,
2014-12-18 01:26:00,66.9,66.9,30.11,West,270,0.0,0.0,73,0.00,,,0.00,,2014-12-18 06:26:00,
2014-12-18 01:31:00,66.9,66.9,30.11,West,270,0.0,0.0,73,0.00,,,0.00,,2014-12-18 06:31:00,
2014-12-18 01:36:00,66.8,66.8,30.11,West,270,0.0,0.0,74,0.00,,,0.00,,2014-12-18 06:36:00,
2014-12-18 01:41:00,66.6,66.8,30.11,West,270,0.0,0.0,74,0.00,,,0.00,,2014-12-18 06:41:00,
2014-12-18 01:46:00,66.6,66.8,30.11,West,270,0.0,0.0,74,0.00,,,0.00,,2014-12-18 06:46:00,
2014-12-18 01:51:00,66.6,66.8,30.11,West,270,0.0,0.0,74,0.00,,,0.00,,2014-12-18 06:51:00,
2014-12-18 01:56:00,66.4,66.9,30.11,West,270,0.0,0.0,74,0.00,,,0.00,,2014-12-18 06:56:00,
2014-12-18 02:01:00,66.4,66.8,30.11,SW,225,0.0,0.0,74,0.00,,,0.00,,2014-12-18 07:01:00,
2014-12-18 02:06:00,66.2,66.8,30.11,West,270,0.0,0.0,75,0.00,,,0.00,,2014-12-18 07:06:00,
2014-12-18 02:11:00,66.0,66.8,30.11,West,270,0.0,0.0,76,0.00,,,0.00,,2014-12-18 07:11:00,
2014-12-18 02:16:00,66.0,66.8,30.11,West,270,0.0,0.0,76,0.00,,,0.00,,2014-12-18 07:16:00,
2014-12-18 02:21:00,65.8,66.7,30.11,West,270,1.8,2.9,77,0.00,,,0.00,,2014-12-18 07:21:00,
2014-12-18 02:26:00,65.7,66.7,30.11,West,270,0.0,0.0,77,0.00,,,0.00,,2014-12-18 07:26:00,
2014-12-18 02:31:00,65.6,66.7,30.11,West,270,0.3,1.1,77,0.00,,,0.00,,2014-12-18 07:31:00,
2014-12-18 02:36:00,65.6,66.7,30.10,WNW,292,2.0,2.0,77,0.00,,,0.00,,2014-12-18 07:36:00,
2014-12-18 02:41:00,65.5,66.7,30.10,WNW,292,3.4,5.4,77,0.00,,,0.00,,2014-12-18 07:41:00,
2014-12-18 02:46:00,65.4,66.7,30.10,WNW,292,2.3,2.3,77,0.00,,,0.00,,2014-12-18 07:46:00,
2014-12-18 02:51:00,65.3,66.7,30.10,WNW,292,1.7,2.2,78,0.00,,,0.00,,2014-12-18 07:51:00,
2014-12-18 02:56:00,65.2,66.6,30.10,WNW,292,3.0,4.0,78,0.00,,,0.00,,2014-12-18 07:56:00,
2014-12-18 03:01:00,65.2,66.7,30.10,WNW,292,2.4,3.6,78,0.00,,,0.00,,2014-12-18 08:01:00,
2014-12-18 03:06:00,65.0,66.6,30.09,West,270,1.0,2.0,78,0.00,,,0.00,,2014-12-18 08:06:00,
2014-12-18 03:11:00,64.8,66.7,30.09,West,270,0.5,1.1,79,0.00,,,0.00,,2014-12-18 08:11:00,
2014-12-18 03:16:00,64.7,66.6,30.09,West,270,0.0,0.0,79,0.00,,,0.00,,2014-12-18 08:16:00,
2014-12-18 03:21:00,64.5,66.6,30.09,WSW,247,1.5,2.5,80,0.00,,,0.00,,2014-12-18 08:21:00,
2014-12-18 03:26:00,64.4,66.6,30.09,WSW,247,0.0,0.0,80,0.00,,,0.00,,2014-12-18 08:26:00,
2014-12-18 03:31:00,64.3,66.6,30.09,West,270,0.3,0.9,80,0.00,,,0.00,,2014-12-18 08:31:00,
2014-12-18 03:36:00,64.3,66.6,30.08,WSW,247,0.3,2.5,80,0.00,,,0.00,,2014-12-18 08:36:00,
2014-12-18 03:41:00,64.3,66.5,30.08,WSW,247,0.0,0.0,80,0.00,,,0.00,,2014-12-18 08:41:00,
2014-12-18 03:46:00,64.2,66.6,30.08,WSW,247,0.0,0.0,80,0.00,,,0.00,,2014-12-18 08:46:00,
2014-12-18 03:51:00,64.1,66.6,30.08,WSW,247,0.0,0.0,81,0.00,,,0.00,,2014-12-18 08:51:00,
2014-12-18 03:56:00,63.9,66.5,30.08,WSW,247,0.0,0.0,81,0.00,,,0.00,,2014-12-18 08:56:00,
2014-12-18 04:01:00,63.9,66.5,30.07,WSW,247,0.0,0.0,81,0.00,,,0.00,,2014-12-18 09:01:00,
2014-12-18 04:06:00,63.8,66.6,30.08,SW,225,0.0,0.0,81,0.00,,,0.00,,2014-12-18 09:06:00,
2014-12-18 04:11:00,63.6,66.5,30.07,WSW,247,0.0,0.0,82,0.00,,,0.00,,2014-12-18 09:11:00,
2014-12-18 04:16:00,63.5,66.5,30.07,SW,225,0.0,0.0,81,0.00,,,0.00,,2014-12-18 09:16:00,
2014-12-18 04:21:00,63.4,66.5,30.07,SW,225,0.0,0.0,81,0.00,,,0.00,,2014-12-18 09:21:00,
2014-12-18 04:26:00,63.3,66.6,30.07,SW,225,0.0,0.0,81,0.00,,,0.00,,2014-12-18 09:26:00,
2014-12-18 04:31:00,63.2,66.5,30.07,SSW,202,0.0,0.0,81,0.00,,,0.00,,2014-12-18 09:31:00,
2014-12-18 04:36:00,63.0,66.5,30.07,SSW,202,0.0,0.0,82,0.00,,,0.00,,2014-12-18 09:36:00,
2014-12-18 04:41:00,62.9,66.4,30.07,SW,225,0.0,0.0,82,0.00,,,0.00,,2014-12-18 09:41:00,
2014-12-18 04:46:00,62.7,66.5,30.07,WSW,247,3.3,4.3,83,0.00,,,0.00,,2014-12-18 09:46:00,
2014-12-18 04:51:00,62.6,66.5,30.07,SW,225,2.6,2.7,83,0.00,,,0.00,,2014-12-18 09:51:00,
2014-12-18 04:56:00,62.5,66.4,30.07,WSW,247,1.1,1.8,84,0.00,,,0.00,,2014-12-18 09:56:00,
2014-12-18 05:01:00,62.4,66.5,30.07,West,270,0.3,1.3,84,0.00,,,0.00,,2014-12-18 10:01:00,
2014-12-18 05:06:00,62.3,66.4,30.07,WSW,247,1.5,2.7,84,0.00,,,0.00,,2014-12-18 10:06:00,
2014-12-18 05:11:00,62.2,66.4,30.08,WSW,247,0.0,0.0,84,0.00,,,0.00,,2014-12-18 10:11:00,
2014-12-18 05:16:00,62.2,66.4,30.08,WSW,247,1.2,1.6,84,0.00,,,0.00,,2014-12-18 10:16:00,
2014-12-18 05:21:00,62.2,66.5,30.08,West,270,0.4,0.4,84,0.00,,,0.00,,2014-12-18 10:21:00,
2014-12-18 05:26:00,62.1,66.4,30.08,West,270,0.8,2.5,85,0.00,,,0.00,,2014-12-18 10:26:00,
2014-12-18 05:31:00,62.1,66.4,30.08,West,270,1.4,3.1,85,0.00,,,0.00,,2014-12-18 10:31:00,
2014-12-18 05:36:00,62.0,66.4,30.08,West,270,0.1,2.5,85,0.00,,,0.00,,2014-12-18 10:36:00,
2014-12-18 05:41:00,61.9,66.5,30.08,West,270,0.0,0.0,85,0.00,,,0.00,,2014-12-18 10:41:00,
2014-12-18 05:46:00,61.9,66.4,30.09,West,270,0.0,0.0,85,0.00,,,0.00,,2014-12-18 10:46:00,
2014-12-18 05:51:00,61.9,66.4,30.09,WNW,292,0.0,1.6,85,0.00,,,0.00,,2014-12-18 10:51:00,
2014-12-18 05:56:00,61.8,66.3,30.09,WNW,292,0.0,0.0,85,0.00,,,0.00,,2014-12-18 10:56:00,
2014-12-18 06:01:00,61.8,66.3,30.09,West,270,0.0,0.0,85,0.00,,,0.00,,2014-12-18 11:01:00,
2014-12-18 06:06:00,61.6,66.3,30.09,West,270,0.0,0.0,85,0.00,,,0.00,,2014-12-18 11:06:00,
2014-12-18 06:11:00,61.5,66.3,30.09,WNW,292,0.0,0.0,85,0.00,,,0.00,,2014-12-18 11:11:00,
2014-12-18 06:16:00,61.5,66.2,30.09,WNW,292,0.0,0.0,85,0.00,,,0.00,,2014-12-18 11:16:00,
2014-12-18 06:21:00,61.4,66.2,30.09,WNW,292,0.0,0.0,85,0.00,,,0.00,,2014-12-18 11:21:00,
2014-12-18 06:26:00,61.3,66.2,30.09,West,270,0.0,0.0,85,0.00,,,0.00,,2014-12-18 11:26:00,
2014-12-18 06:31:00,61.1,66.3,30.10,WNW,292,0.0,0.0,85,0.00,,,0.00,,2014-12-18 11:31:00,
2014-12-18 06:36:00,61.0,66.3,30.09,WNW,292,0.0,0.0,85,0.00,,,0.00,,2014-12-18 11:36:00,
2014-12-18 06:41:00,61.0,66.3,30.10,West,270,0.7,3.6,85,0.00,,,0.00,,2014-12-18 11:41:00,
2014-12-18 06:46:00,60.9,66.3,30.10,WNW,292,0.0,0.0,85,0.00,,,0.00,,2014-12-18 11:46:00,
2014-12-18 06:51:00,60.8,66.2,30.10,WNW,292,1.0,4.9,85,0.00,,,0.00,,2014-12-18 11:51:00,
2014-12-18 06:56:00,60.7,66.1,30.10,NW,315,1.7,1.8,85,0.00,,,0.00,,2014-12-18 11:56:00,
2014-12-18 07:01:00,60.6,66.1,30.10,WNW,292,0.2,1.1,85,0.00,,,0.00,,2014-12-18 12:01:00,
2014-12-18 07:06:00,60.5,66.1,30.10,NW,315,0.2,3.4,84,0.00,,,0.00,,2014-12-18 12:06:00,
2014-12-18 07:11:00,60.4,66.0,30.10,NW,315,2.3,5.1,84,0.00,,,0.00,,2014-12-18 12:11:00,
2014-12-18 07:16:00,60.4,66.0,30.10,NW,315,2.3,5.8,83,0.00,,,0.00,,2014-12-18 12:16:00,
2014-12-18 07:21:00,60.5,66.1,30.10,NW,315,2.8,3.6,84,0.00,,,0.00,,2014-12-18 12:21:00,
2014-12-18 07:26:00,60.5,66.1,30.11,NW,315,3.8,5.4,82,0.00,,,0.00,,2014-12-18 12:26:00,
2014-12-18 07:31:00,60.7,66.2,30.11,NW,315,4.5,6.7,82,0.00,,,0.00,,2014-12-18 12:31:00,
2014-12-18 07:36:00,60.9,66.2,30.11,NNW,337,3.5,5.4,81,0.00,,,0.00,,2014-12-18 12:36:00,
2014-12-18 07:41:00,61.0,66.2,30.11,NNW,337,4.1,4.9,80,0.00,,,0.00,,2014-12-18 12:41:00,
2014-12-18 07:46:00,61.3,66.3,30.11,NW,315,4.0,6.7,79,0.00,,,0.00,,2014-12-18 12:46:00,
2014-12-18 07:51:00,61.5,66.2,30.11,NW,315,4.3,5.4,77,0.00,,,0.00,,2014-12-18 12:51:00,
2014-12-18 07:56:00,61.8,66.3,30.12,NNW,337,3.6,5.4,76,0.00,,,0.00,,2014-12-18 12:56:00,
2014-12-18 08:01:00,61.9,66.3,30.12,NNW,337,3.7,4.9,75,0.00,,,0.00,,2014-12-18 13:01:00,
2014-12-18 08:06:00,62.1,66.4,30.11,NNW,337,3.7,6.3,74,0.00,,,0.00,,2014-12-18 13:06:00,
2014-12-18 08:11:00,62.4,66.3,30.12,NNW,337,3.4,3.8,74,0.00,,,0.00,,2014-12-18 13:11:00,
2014-12-18 08:16:00,62.6,66.3,30.12,NNW,337,1.9,3.1,73,0.00,,,0.00,,2014-12-18 13:16:00,
2014-12-18 08:21:00,62.9,66.4,30.12,NNW,337,2.0,2.9,73,0.00,,,0.00,,2014-12-18 13:21:00,
2014-12-18 08:26:00,62.9,66.5,30.12,North,0,5.0,8.1,70,0.00,,,0.00,,2014-12-18 13:26:00,
2014-12-18 08:31:00,62.9,66.6,30.12,NNW,337,7.5,8.1,67,0.00,,,0.00,,2014-12-18 13:31:00,
2014-12-18 08:36:00,62.9,66.6,30.12,NNW,337,5.5,7.6,67,0.00,,,0.00,,2014-12-18 13:36:00,
2014-12-18 08:41:00,63.0,66.7,30.13,NNW,337,3.6,4.5,68,0.00,,,0.00,,2014-12-18 13:41:00,
2014-12-18 08:46:00,63.4,66.8,30.13,WNW,292,4.1,5.8,69,0.00,,,0.00,,2014-12-18 13:46:00,
2014-12-18 08:51:00,63.8,66.8,30.14,WNW,292,5.8,8.1,68,0.00,,,0.00,,2014-12-18 13:51:00,
2014-12-18 08:56:00,64.2,66.8,30.14,NW,315,4.8,6.0,67,0.00,,,0.00,,2014-12-18 13:56:00,
2014-12-18 09:01:00,64.5,66.9,30.14,WNW,292,6.9,10.3,66,0.00,,,0.00,,2014-12-18 14:01:00,
2014-12-18 09:06:00,64.8,67.0,30.14,NW,315,5.5,6.9,66,0.00,,,0.00,,2014-12-18 14:06:00,
2014-12-18 09:11:00,65.1,67.0,30.14,NW,315,5.5,7.8,64,0.00,,,0.00,,2014-12-18 14:11:00,
2014-12-18 09:16:00,65.2,67.0,30.14,NNW,337,3.0,3.8,65,0.00,,,0.00,,2014-12-18 14:16:00,
2014-12-18 09:21:00,65.7,67.0,30.14,NNW,337,4.0,5.1,65,0.00,,,0.00,,2014-12-18 14:21:00,
2014-12-18 09:26:00,66.2,67.1,30.14,WNW,292,4.5,5.8,64,0.00,,,0.00,,2014-12-18 14:26:00,
2014-12-18 09:31:00,66.5,67.1,30.14,WNW,292,2.7,5.6,64,0.00,,,0.00,,2014-12-18 14:31:00,
2014-12-18 09:36:00,66.9,67.1,30.14,NW,315,5.5,6.3,62,0.00,,,0.00,,2014-12-18 14:36:00,
2014-12-18 09:41:00,67.0,67.2,30.14,NW,315,3.8,7.6,62,0.00,,,0.00,,2014-12-18 14:41:00,
2014-12-18 09:46:00,67.2,67.2,30.14,WNW,292,1.2,3.1,62,0.00,,,0.00,,2014-12-18 14:46:00,
2014-12-18 09:51:00,67.4,67.2,30.15,NNW,337,3.6,6.0,62,0.00,,,0.00,,2014-12-18 14:51:00,
2014-12-18 09:56:00,67.5,67.2,30.15,NW,315,7.3,8.1,61,0.00,,,0.00,,2014-12-18 14:56:00,
2014-12-18 10:01:00,67.7,67.3,30.15,NNW,337,5.0,7.2,61,0.00,,,0.00,,2014-12-18 15:01:00,
2014-12-18 10:06:00,67.9,67.3,30.15,WNW,292,4.9,7.4,62,0.00,,,0.00,,2014-12-18 15:06:00,
2014-12-18 10:11:00,68.3,67.4,30.15,West,270,3.9,6.7,62,0.00,,,0.00,,2014-12-18 15:11:00,
2014-12-18 10:16:00,68.4,67.2,30.15,NW,315,4.8,5.1,62,0.00,,,0.00,,2014-12-18 15:16:00,
2014-12-18 10:21:00,68.5,67.2,30.15,West,270,3.2,6.9,62,0.00,,,0.00,,2014-12-18 15:21:00,
2014-12-18 10:26:00,68.7,67.3,30.15,WNW,292,3.9,5.8,63,0.00,,,0.00,,2014-12-18 15:26:00,
2014-12-18 10:31:00,69.1,67.3,30.15,West,270,2.3,3.8,63,0.00,,,0.00,,2014-12-18 15:31:00,
2014-12-18 10:36:00,69.2,67.2,30.15,WNW,292,4.3,6.0,63,0.00,,,0.00,,2014-12-18 15:36:00,
2014-12-18 10:41:00,69.6,67.3,30.15,NW,315,4.4,6.3,63,0.00,,,0.00,,2014-12-18 15:41:00,
2014-12-18 10:46:00,70.1,67.4,30.15,West,270,2.4,2.9,63,0.00,,,0.00,,2014-12-18 15:46:00,
2014-12-18 10:51:00,70.4,67.4,30.15,West,270,3.7,6.3,63,0.00,,,0.00,,2014-12-18 15:51:00,
2014-12-18 10:56:00,70.3,67.2,30.14,WNW,292,1.6,4.7,62,0.00,,,0.00,,2014-12-18 15:56:00,
2014-12-18 11:01:00,70.6,67.2,30.14,WNW,292,2.4,4.3,63,0.00,,,0.00,,2014-12-18 16:01:00,
2014-12-18 11:06:00,71.1,67.4,30.14,NNW,337,5.9,8.5,63,0.00,,,0.00,,2014-12-18 16:06:00,
2014-12-18 11:11:00,71.2,67.3,30.14,WNW,292,4.4,6.7,63,0.00,,,0.00,,2014-12-18 16:11:00,
2014-12-18 11:16:00,71.6,67.4,30.14,WNW,292,0.1,0.7,63,0.00,,,0.00,,2014-12-18 16:16:00,
2014-12-18 11:21:00,72.1,67.1,30.13,NW,315,3.9,4.9,63,0.00,,,0.00,,2014-12-18 16:21:00,
2014-12-18 11:26:00,72.2,67.2,30.13,West,270,3.1,7.6,62,0.00,,,0.00,,2014-12-18 16:26:00,
2014-12-18 11:31:00,72.3,67.4,30.13,West,270,2.8,6.0,63,0.00,,,0.00,,2014-12-18 16:31:00,
2014-12-18 11:36:00,72.5,67.4,30.13,West,270,5.6,10.5,63,0.00,,,0.00,,2014-12-18 16:36:00,
2014-12-18 11:41:00,72.6,67.5,30.13,WNW,292,5.2,8.7,63,0.00,,,0.00,,2014-12-18 16:41:00,
2014-12-18 11:47:00,72.8,67.6,30.12,West,270,4.8,11.0,62,0.00,,,0.00,,2014-12-18 16:47:00,
2014-12-18 11:52:00,72.9,67.7,30.12,NW,315,6.6,8.5,62,0.00,,,0.00,,2014-12-18 16:52:00,
2014-12-18 11:57:00,73.1,67.8,30.12,NW,315,1.8,4.5,62,0.00,,,0.00,,2014-12-18 16:57:00,
2014-12-18 12:02:00,73.3,67.8,30.11,West,270,3.5,4.7,62,0.00,,,0.00,,2014-12-18 17:02:00,
2014-12-18 12:06:00,73.4,67.8,30.11,West,270,2.5,5.4,61,0.00,,,0.00,,2014-12-18 17:06:00,
2014-12-18 12:11:00,73.6,67.5,30.11,WNW,292,7.7,9.4,61,0.00,,,0.00,,2014-12-18 17:11:00,
2014-12-18 12:16:00,73.6,67.5,30.10,SW,225,4.6,8.9,61,0.00,,,0.00,,2014-12-18 17:16:00,
2014-12-18 12:21:00,73.6,67.5,30.10,WSW,247,7.0,10.1,62,0.00,,,0.00,,2014-12-18 17:21:00,
2014-12-18 12:27:00,73.6,67.7,30.10,WNW,292,5.3,9.8,62,0.00,,,0.00,,2014-12-18 17:27:00,
2014-12-18 12:32:00,73.9,67.8,30.09,West,270,6.4,8.3,62,0.00,,,0.00,,2014-12-18 17:32:00,
2014-12-18 12:37:00,73.9,67.8,30.09,WNW,292,7.9,11.0,62,0.00,,,0.00,,2014-12-18 17:37:00,
2014-12-18 12:42:00,74.0,67.6,30.09,West,270,5.1,5.1,62,0.00,,,0.00,,2014-12-18 17:42:00,
2014-12-18 12:47:00,74.0,67.5,30.09,WNW,292,10.8,14.8,63,0.00,,,0.00,,2014-12-18 17:47:00,
2014-12-18 12:52:00,74.0,67.3,30.09,WNW,292,7.2,7.6,63,0.00,,,0.00,,2014-12-18 17:52:00,
2014-12-18 12:57:00,74.1,67.3,30.08,West,270,6.2,11.0,63,0.00,,,0.00,,2014-12-18 17:57:00,
2014-12-18 13:02:00,74.1,67.4,30.08,WNW,292,4.1,8.1,62,0.00,,,0.00,,2014-12-18 18:02:00,
2014-12-18 13:06:00,74.4,67.3,30.08,West,270,5.6,11.4,62,0.00,,,0.00,,2014-12-18 18:06:00,
2014-12-18 13:11:00,74.4,67.5,30.08,WNW,292,4.3,9.4,61,0.00,,,0.00,,2014-12-18 18:11:00,
2014-12-18 13:16:00,74.5,67.5,30.07,WNW,292,7.2,11.0,60,0.00,,,0.00,,2014-12-18 18:16:00,
2014-12-18 13:21:00,74.5,67.8,30.07,WNW,292,6.2,11.2,60,0.00,,,0.00,,2014-12-18 18:21:00,
2014-12-18 13:26:00,74.5,67.8,30.07,West,270,6.6,7.6,60,0.00,,,0.00,,2014-12-18 18:26:00,
2014-12-18 13:31:00,74.5,67.3,30.07,WNW,292,7.2,11.0,59,0.00,,,0.00,,2014-12-18 18:31:00,
2014-12-18 13:36:00,74.7,67.4,30.06,NW,315,4.2,6.9,59,0.00,,,0.00,,2014-12-18 18:36:00,
2014-12-18 13:41:00,74.9,67.5,30.06,WNW,292,9.4,13.4,58,0.00,,,0.00,,2014-12-18 18:41:00,